STARLINK-32390, 61630

Orbit data source: Space-Track

STARLINK-32390, 61630 is a payload satellite owned by SpaceX/Seattle (US) in LEO that was launched on Wed, 23 Oct 2024 UTC via an FALCON 9 launch vehicle from the Air Force Eastern Test Range (AFETR). Payload-class satellites include a variety of spacecraft equipped with specific instruments for various scientific and technological missions. These include communications satellites like Starlink; space stations such as the ISS; scientific satellites like the Hubble; Earth observation satellites from companies like Planet Labs, Umbra, and HawkEye 360; GPS; miniature CubeSats for education and research; and military/defense satellites.

Loading next visibility...
Identifier
61630, 2024-191K
Orbit
LEO
Last TLE update
9 hours ago
Origin
Manufacturer
SpaceX/Seattle
Mission
Operational Commercial Communications
Bus & Motor
STARLINK V2M, Unknown motor
Mass
730 kg wet, ~700 kg dry
Launch date (UTC)
2024-10-23 (9 months ago)
Launch vehicle
FALCON 9
Launch site
Air Force Eastern Test Range (AFETR)
Object type
Payload
Rocket body
Debris
Shape & HBR
Box + 2 Pan, 29 m
Radar Cross Section
36.964 m², Large (>1 m²)

Expand to show TLE details & history

TLE from 9 hours ago
0 STARLINK-32390
1 61630U 24191K   25189.92720426 -.00000675  00000-0 -14985-4 0  9991
2 61630  43.0020  91.3535 0001268 231.2568 128.8170 15.27587128 40251
Epoch: 2025-07-08T22:15Z
TLE epoch observation values (Epoch: 2025-07-08T22:15:10.448Z)
Latitude
-0.00003°
Longitude
-169.55524°
Altitude
483.349 km
Speed
7.625 km/s
True Right ascension
06h 05m 24s
True Declination
0° 00' 00"
Sunlit
Object was in daylight at epoch
Visualization orbit readout
Latitude
-43.15909°
Longitude
97.84506°
Altitude
495.674 km
Speed
7.618 km/s
Apparent Right ascension
03h 36m 12s
Apparent Declination
-57° 52' 05"
Sunlit
Object is in full shadow
Visualization observer readout
Local Sidereal Time
19:25:55
Azimuth
136.1° SSE
Elevation
-49.728°
Doppler factor
1
Orbital elements
Apogee altitude
485.843 km
Perigee altitude
484.102 km
Semi-major axis
6,863.11 km
Eccentricity
0.00013
Inclination
43.002°
RAAN
91.3535°
Arg. of periapsis
231.2568°
True anomaly
Unknown
Mean anomaly
128.817°
Eccentric anomaly
Unknown
Mean motion
3.81735 °/min
Orbital period
94.31 mins
BSTAR
-0.000014985
Loading maneuver chart data...
Loading SW <> Apogee altitude chart data...
Loading historical data...
Loading historical data...
Loading historical data...
Loading historical data...
Loading historical data...
Loading historical data...
Loading historical data...

STARLINK-32390 Visibility forecast

Observer location: undefined°, undefined°

Span
Click to sort rows by Start time (UTC) header in descending order
Start Az.
Max El. time (UTC)
Max El. Az.
Max El.
End time (UTC)
End Az.
5 mins2025-07-09 20:25:27.402Z206.181° SW2025-07-09 20:28:27.402Z135.693° SSE26.936°2025-07-09 20:30:27.402Z93.806° ESE
6 mins2025-07-09 22:04:27.402Z262.163° W2025-07-09 22:06:27.402Z294.236° NW42.31°2025-07-09 22:10:27.402Z70.776° E
6 mins2025-07-09 23:43:27.402Z290.584° WNW2025-07-09 23:46:27.402Z29.645° NE36.971°2025-07-09 23:49:27.402Z79.954° E
6 mins2025-07-10 01:22:27.402Z285.978° WNW2025-07-10 01:25:27.402Z142.107° SSE43.393°2025-07-10 01:28:27.402Z114.487° SE
|